When you browse on this site, cookies collect data to enhance your experience and personalize the content and advertising you see.
Visit our Privacy Policy to learn more. By continuing to use the site, you agree to this use of cookies and data.
  • In Spain
  • List of Countries
  • For 7 days
  • Water Temperature
  • Satellite Maps
  • Weather Map
  • Weather Widgets
  • user-avatar
    Login

    Hourly Weather Spring Garden

    Today, 19 December, Wednesday

    Time Temperature Precipitation Wind Pressure Humidity
    00:00 +5°C° 0 mm 1 mps 651 mmHg 92%
    01:00 +5°C° 0 mm 1 mps 651 mmHg 93%
    02:00 +5°C° 0 mm 1 mps 651 mmHg 93%
    03:00 +4°C° 0 mm 1 mps 651 mmHg 94%
    04:00 +4°C° 0 mm 1 mps 651 mmHg 95%
    05:00 +3°C° 0 mm 1 mps 651 mmHg 93%
    06:00 +3°C° 0 mm 1 mps 651 mmHg 92%
    07:00 +3°C° 0 mm 1 mps 651 mmHg 90%
    08:00 +5°C° 0 mm 1 mps 651 mmHg 83%
    09:00 +7°C° 0 mm 1 mps 652 mmHg 77%
    10:00 +9°C° 0 mm 1 mps 652 mmHg 70%
    11:00 +10°C° 0 mm 1 mps 652 mmHg 63%
    12:00 +12°C° 0 mm 1 mps 652 mmHg 57%
    13:00 +13°C° 0 mm 1 mps 652 mmHg 50%
    14:00 +12°C° 0 mm 1 mps 651 mmHg 57%
    15:00 +10°C° 0 mm 1 mps 650 mmHg 64%
    16:00 +9°C° 0 mm 1 mps 650 mmHg 71%
    17:00 +8°C° 0 mm 1 mps 649 mmHg 75%
    18:00 +6°C° 0 mm 1 mps 649 mmHg 79%
    19:00 +5°C° 0 mm 1 mps 648 mmHg 83%
    20:00 +4°C° 0 mm 1 mps 648 mmHg 82%
    21:00 +4°C° 0 mm 1 mps 648 mmHg 81%
    22:00 +4°C° 0 mm 1 mps 648 mmHg 80%
    23:00 +4°C° 0 mm 1 mps 648 mmHg 78%

    Tomorrow, 20 December, Thursday

    Time Temperature Precipitation Wind Pressure Humidity
    00:00 +3°C° 0 mm 1 mps 648 mmHg 76%
    01:00 +3°C° 0 mm 1 mps 648 mmHg 73%
    02:00 +3°C° 0 mm 1 mps 648 mmHg 72%
    03:00 +3°C° 0 mm 1 mps 648 mmHg 71%
    04:00 +3°C° 0 mm 1 mps 647 mmHg 70%
    05:00 +3°C° 0 mm 1 mps 647 mmHg 70%
    06:00 +2°C° 0 mm 2 mps 647 mmHg 70%
    07:00 +2°C° 0 mm 2 mps 647 mmHg 70%
    08:00 +4°C° 0 mm 2 mps 648 mmHg 63%
    09:00 +7°C° 0 mm 2 mps 649 mmHg 56%
    10:00 +9°C° 0 mm 2 mps 649 mmHg 50%
    11:00 +10°C° 0 mm 2 mps 649 mmHg 47%
    12:00 +11°C° 0 mm 3 mps 648 mmHg 44%
    13:00 +12°C° 0 mm 4 mps 648 mmHg 41%
    14:00 +11°C° 0 mm 3 mps 647 mmHg 47%
    15:00 +9°C° 0 mm 3 mps 646 mmHg 53%
    16:00 +8°C° 0 mm 2 mps 646 mmHg 59%
    17:00 +7°C° 0 mm 2 mps 646 mmHg 62%
    18:00 +6°C° 0 mm 2 mps 645 mmHg 64%
    19:00 +5°C° 0 mm 2 mps 645 mmHg 67%
    20:00 +4°C° 0.3 mm 3 mps 645 mmHg 68%
    21:00 +4°C° 0.3 mm 3 mps 645 mmHg 70%
    22:00 +3°C° 0.3 mm 3 mps 645 mmHg 71%
    23:00 +4°C° 1.4 mm 2 mps 645 mmHg 76%

    Day after tomorrow, 21 December, Friday

    Time Temperature Precipitation Wind Pressure Humidity
    00:00 +4°C° 1.4 mm 2 mps 646 mmHg 80%
    01:00 +5°C° 1.4 mm 1 mps 646 mmHg 85%
    02:00 +4°C° 0.6 mm 1 mps 646 mmHg 88%
    03:00 +4°C° 0.6 mm 1 mps 646 mmHg 91%
    04:00 +4°C° 0.6 mm 1 mps 646 mmHg 94%
    05:00 +4°C° 0 mm 1 mps 647 mmHg 94%
    06:00 +3°C° 0 mm 1 mps 647 mmHg 94%
    07:00 +3°C° 0 mm 1 mps 647 mmHg 94%
    08:00 +4°C° 0 mm 1 mps 648 mmHg 91%
    09:00 +6°C° 0 mm 1 mps 648 mmHg 88%
    10:00 +7°C° 0 mm 1 mps 648 mmHg 85%
    11:00 +7°C° 0 mm 1 mps 648 mmHg 82%
    12:00 +8°C° 0 mm 1 mps 647 mmHg 80%
    13:00 +9°C° 0 mm 1 mps 647 mmHg 77%
    14:00 +8°C° 0.1 mm 1 mps 646 mmHg 80%
    15:00 +8°C° 0.1 mm 1 mps 646 mmHg 83%
    16:00 +7°C° 0.1 mm 1 mps 645 mmHg 86%
    17:00 +7°C° 0.1 mm 1 mps 645 mmHg 88%
    18:00 +5°C° 0.1 mm 0 mps 646 mmHg 90%
    19:00 +4°C° 0.1 mm 0 mps 646 mmHg 93%
    20:00 +4°C° 0.1 mm 0 mps 646 mmHg 93%
    21:00 +4°C° 0.1 mm 0 mps 646 mmHg 93%
    22:00 +5°C° 0.1 mm 1 mps 646 mmHg 94%
    23:00 +5°C° 0.2 mm 1 mps 646 mmHg 94%

    22 December, Saturday

    Time Temperature Precipitation Wind Pressure Humidity
    00:00 +4°C° 0.2 mm 1 mps 646 mmHg 94%
    01:00 +4°C° 0.2 mm 1 mps 646 mmHg 94%
    02:00 +4°C° 0.1 mm 1 mps 646 mmHg 94%
    03:00 +3°C° 0.1 mm 1 mps 646 mmHg 94%
    04:00 +2°C° 0.1 mm 1 mps 647 mmHg 94%
    05:00 +2°C° 0 mm 1 mps 647 mmHg 93%
    06:00 +1°C° 0 mm 1 mps 647 mmHg 92%
    07:00 +1°C° 0 mm 1 mps 647 mmHg 91%
    08:00 +2°C° 0 mm 1 mps 648 mmHg 84%
    09:00 +4°C° 0 mm 1 mps 648 mmHg 77%
    10:00 +5°C° 0 mm 1 mps 649 mmHg 71%
    11:00 +7°C° 0 mm 1 mps 649 mmHg 63%
    12:00 +8°C° 0 mm 1 mps 649 mmHg 56%
    13:00 +9°C° 0 mm 1 mps 649 mmHg 49%
    14:00 +8°C° 0 mm 1 mps 649 mmHg 54%
    15:00 +7°C° 0 mm 1 mps 648 mmHg 59%
    16:00 +5°C° 0 mm 0 mps 648 mmHg 64%
    17:00 +5°C° 0 mm 1 mps 648 mmHg 67%
    18:00 +4°C° 0 mm 1 mps 648 mmHg 69%
    19:00 +3°C° 0 mm 1 mps 648 mmHg 71%
    20:00 +3°C° 0 mm 1 mps 648 mmHg 71%
    21:00 +3°C° 0 mm 1 mps 649 mmHg 70%
    22:00 +4°C° 0 mm 1 mps 649 mmHg 69%
    23:00 +4°C° 0 mm 1 mps 649 mmHg 69%

    23 December, Sunday

    Time Temperature Precipitation Wind Pressure Humidity
    00:00 +4°C° 0 mm 1 mps 649 mmHg 68%
    01:00 +4°C° 0 mm 1 mps 649 mmHg 68%
    02:00 +4°C° 0.1 mm 1 mps 649 mmHg 68%
    03:00 +4°C° 0.1 mm 1 mps 649 mmHg 68%
    04:00 +4°C° 0.1 mm 1 mps 649 mmHg 68%
    05:00 +3°C° 0 mm 1 mps 649 mmHg 68%
    06:00 +3°C° 0 mm 1 mps 649 mmHg 68%
    07:00 +3°C° 0 mm 1 mps 649 mmHg 68%
    08:00 +4°C° 0 mm 1 mps 650 mmHg 63%
    09:00 +6°C° 0 mm 1 mps 650 mmHg 59%
    10:00 +8°C° 0 mm 1 mps 650 mmHg 55%
    11:00 +9°C° 0 mm 1 mps 650 mmHg 54%
    12:00 +10°C° 0 mm 1 mps 650 mmHg 54%
    13:00 +10°C° 0 mm 2 mps 649 mmHg 53%
    14:00 +8°C° 0 mm 2 mps 649 mmHg 60%
    15:00 +8°C° 0 mm 1 mps 648 mmHg 67%
    16:00 +7°C° 0 mm 1 mps 647 mmHg 74%
    17:00 +6°C° 0 mm 1 mps 647 mmHg 76%
    18:00 +5°C° 0 mm 1 mps 647 mmHg 78%
    19:00 +4°C° 0 mm 1 mps 647 mmHg 81%
    20:00 +4°C° 0.4 mm 1 mps 647 mmHg 82%
    21:00 +3°C° 0.4 mm 2 mps 647 mmHg 82%
    22:00 +3°C° 0.4 mm 2 mps 647 mmHg 83%
    23:00 +3°C° 0.5 mm 2 mps 647 mmHg 86%

    24 December, Monday

    Time Temperature Precipitation Wind Pressure Humidity
    00:00 +3°C° 0.5 mm 2 mps 646 mmHg 89%
    01:00 +3°C° 0.5 mm 2 mps 646 mmHg 91%
    02:00 +4°C° 0.4 mm 2 mps 645 mmHg 92%
    03:00 +4°C° 0.4 mm 2 mps 644 mmHg 94%
    04:00 +4°C° 0.4 mm 3 mps 644 mmHg 95%
    05:00 +4°C° 2.6 mm 3 mps 643 mmHg 95%
    06:00 +4°C° 2.6 mm 3 mps 643 mmHg 96%
    07:00 +4°C° 2.6 mm 4 mps 642 mmHg 96%
    08:00 +3°C° 3.2 mm 5 mps 642 mmHg 96%
    09:00 +3°C° 3.2 mm 5 mps 641 mmHg 96%
    10:00 +4°C° 3.2 mm 6 mps 641 mmHg 96%
    11:00 +4°C° 2 mm 6 mps 641 mmHg 93%
    12:00 +3°C° 2 mm 6 mps 641 mmHg 91%
    13:00 +3°C° 2 mm 6 mps 640 mmHg 89%
    14:00 +3°C° 0.3 mm 5 mps 640 mmHg 89%
    15:00 +3°C° 0.3 mm 4 mps 641 mmHg 89%
    16:00 +3°C° 0.3 mm 3 mps 641 mmHg 89%
    17:00 +3°C° 0.2 mm 2 mps 641 mmHg 91%
    18:00 +3°C° 0.2 mm 2 mps 641 mmHg 93%
    19:00 +3°C° 0.2 mm 1 mps 641 mmHg 95%
    20:00 +3°C° 0.2 mm 1 mps 641 mmHg 95%
    21:00 +2°C° 0.2 mm 1 mps 641 mmHg 95%
    22:00 +2°C° 0.2 mm 1 mps 642 mmHg 96%
    23:00 +2°C° 0.2 mm 1 mps 642 mmHg 96%
    Show more